Location: Oberkirch
(48.5323°N, 8.0787°E)
Time: 08:00:52
(UTC+00:00)

Cosmos 1725 Rocket - Pass Details

Date: 08 November 2025
Orbit: 961 x 989 km, 82.9° (Epoch: 12 December)

Event Time Altitude Azimuth Distance (km) Brightness Sun altitude
Rises 04:55:10 0° 347° (NNW) 3,713 6.8 -15.0°
Reaches altitude 10° 04:57:45 10° 343° (NNW) 2,761 6.1 -14.6°
Maximum altitude 05:03:51 53° 269° (W) 1,209 4.1 -13.6°
Drops below altitude 10° 05:09:55 10° 194° (SSW) 2,739 6.3 -12.6°
Sets 05:12:28 0° 190° (S) 3,681 7.0 -12.2°
